Tracking 19575 objects as of 19-Feb-2019
HD Live streaming from Space Station
objects crossing your sky now

COSMOS 1823 DEB

Track COSMOS 1823 DEB now!
10-day predictions


NORAD ID: 26601
Int'l Code: 1987-020DT
Perigee: 1,486.7 km
Apogee: 1,530.1 km
Inclination: 73.6 °
Period: 116.0 minutes
Semi major axis: 7879 km
RCS: 0.0108 m2 (small)
Launch date: February 20, 1987
Source: Commonwealth of Independent States (former USSR) (CIS)
Launch site: PLESETSK MISSILE AND SPACE COMPLEX (PKMTR)

Note: This is SATELLITE DEBRIS
aabbcc
Your satellite tracking list
Your tracking list is empty




NASA's NSSDC Master Catalog

Two Line Element Set (TLE):
1 26601U 87020DT  19049.96708465 -.00000024 +00000-0 -53831-4 0  9992
2 26601 073.6027 033.0334 0027564 117.5627 275.6789 12.41256062948139
Source of the keplerian elements: AFSPC